Regional Weather Roundup
Issued by NWS Newport/Morehead, NC

Current Version | Previous Version | Graphics & Text | Print | Product List | Glossary On
Versions: 1 2 3 4 5 6 7 8 9 10 11 12 13 14 15 16 17 18 19 20 21 22 23 24 25 26 27 28 29 30 31 32 33 34 35 36 37 38 39 40 41 42 43 44 45 46 47 48 49 50
000 ASUS42 KMHX 050525 RWRMHX WEATHER ROUNDUP FOR EASTERN NORTH CAROLINA NATIONAL WEATHER SERVICE NEWPORT/MOREHEAD CITY NC 100 AM EDT WED AUG 05 2015 NOTE: "FAIR" INDICATES FEW OR NO CLOUDS BELOW 12,000 FEET WITH NO SIGNIFICANT WEATHER AND/OR OBSTRUCTIONS TO VISIBILITY NCZ015>017-031-032-045>047-102-103-050600- NORTH COAST CITY SKY/WX TMP DP RH WIND PRES REMARKS EDENTON N/A 78 75 91 SW3 29.95F ELIZABETH CITY PTCLDY 76 75 97 SW5 29.95F KITTY HAWK MOCLDY 78 74 87 SW5 29.94F MANTEO MOCLDY 78 76 94 SW8 29.95F $$ NCZ045>047-081-094-103-104-050600- CENTRAL COAST CITY SKY/WX TMP DP RH WIND PRES REMARKS FRISCO CLOUDY 79 76 90 W10 29.96F SWANQUARTER N/A 79 N/A N/A SW3G10 29.91S $$ NCZ095-097-098-100-101-050600- SOUTHERN COAST CITY SKY/WX TMP DP RH WIND PRES REMARKS BEAUFORT PTCLDY 80 78 94 W9 29.97R CEDAR ISLAND N/A 79 N/A N/A SW1G8 30.00S JACKSONVILLE CLEAR 76 74 93 SW5 29.97F PINEY ISLAND CLOUDY N/A N/A N/A W5 29.95F WILMINGTON CLEAR 77 76 96 CALM 29.99S $$ NCZ011>013-027>030-043-044-078>080-089-090>093-098-050600- COASTAL PLAIN CITY SKY/WX TMP DP RH WIND PRES REMARKS AHOSKIE PTCLDY N/A N/A N/A S3 29.97F CLINTON CLEAR 75 74 99 CALM 29.99F ELIZABETHTOWN CLEAR 77 76 96 CALM 29.99F GOLDSBORO CLEAR 75 74 95 CALM 29.97S GREENVILLE CLEAR 75 73 94 CALM 29.99F HAVELOCK CLOUDY 78 76 93 W8 29.98S KENANSVILLE CLEAR 72 71 96 CALM 30.00S KINSTON CLEAR 73 71 96 CALM 29.99S NEW BERN CLEAR 78 74 87 W3 29.98S RICHLANDS CLEAR 73 70 88 CALM 29.99S ROCKY MOUNT PTCLDY 75 72 90 CALM 29.98S WASHINGTON CLEAR 74 73 96 CALM 29.97F WHITEVILLE CLEAR 78 75 93 CALM 29.99S $$ AMZ130-135-150-152-154-156-158-170-250-252-270-ANZ085-086-088-633-658-670-050600- MARINE OBSERVATIONS STATION/POSITION TIME TEMP WIND PRES WAVE SWELL AIR SEA DIR/SP/G HT/PER HT/PER (UTC) (F) (DEG/KT/KT) (MB) (FT/S) (FT/S) CHESAPEAKE LIGHT 0500 78 210/ 18/ 20 1014.1 64 E VA BEACH 0450 81 81 210/ 21/ 25 1013.8 5/ 6 2/11 DUCK 0500 78 63 180/ 10/ 11 1013.3 2 E DUCK 0511 64 N/A 3/ 6 OREGON INLET 0500 80 82 180/ 11/ 13 1014.2 13E OREGON INLT 0500 81 N/A 4/ 6 HATTERAS CG 0500 78 80 230/ 8/ 11 1014.3 DIAMOND BUOY 0450 83 84 220/ 23/ 29 1014.0 6/ 6 2/11 CAPE LOOKOUT 0500 81 240/ 11/ 16 1014.5 BEAUFORT LAB 0500 80 80 280/ 2/ 8 1014.1 30 SE NEW RVR IN 0408 82 81 240/ 16/ 21 1015.4 27 SE WRIGHTSVLE 0500 78 82 260/ 17/ 19 N/A 5 SE WRIGHTSVLE NOT AVBL 225 S CAPE HAT 0350 82 81 220/ 8/ 10 1018.9 6/ 6 5/ 6 41 SE CHARLESTON 0450 83 83 220/ 14/ 16 1015.9 3/ 7 2/ 7 $$

USA.gov is the U.S. government's official web portal to all federal, state and local government web resources and services.